Powrót do katalogu

STARLINK-36724

AktywnyŁącznośćVLEO
NORAD 67914·PAYLOAD·🇺🇸 United States

Wystrzelony Feb 22, 2026 z Vandenberg Space Force Base

Loading…

Następne Przeloty (najbliższe 24 godziny)

TLE

ŚwieżeSource: CelesTrak SupGP

Epoka: Sep 15, 2026, 04:11 UTC

1 67914C 26036L   26258.17479167 -.00036486  00000+0 -13217-2 0  2581
2 67914  43.0021 254.9415 0001154 267.4255  96.8804 15.27592220    12

Śledź STARLINK-36724 w czasie rzeczywistym z AllMySat

Download on the App Store